Location: Newark
(47.4333°N, 19.2500°E)
Time: 15:29:10
(UTC+00:00)

ISS - Pass Details

Date: 07 March 2021
Orbit: 418 x 422 km, 51.6° (Epoch: 17 April)

Event Time Altitude Azimuth Distance (km) Brightness Sun altitude
Exits shadow 03:55:12 21° 300° (WNW) 999 -2.3 -13.8°
Maximum altitude 03:57:17 71° 21° (NNE) 445 -3.6 -13.4°
Drops below altitude 10° 04:00:38 10° 106° (ESE) 1,493 0.2 -12.9°
Sets 04:02:44 0° 109° (ESE) 2,355 1.3 -12.5°
